Location: Grantsboro
(35.1404°N, 76.8424°W)
Time: 02:31:40
(UTC+00:00)

Cosmos 2219 - Pass Details

Date: 18 January 2020
Orbit: 833 x 861 km, 71.1° (Epoch: 22 February)

Event Time Altitude Azimuth Distance (km) Brightness Sun altitude
Exits shadow 10:53:47 25° 273° (W) 1,657 4.1 -16.4°
Maximum altitude 10:54:40 26° 258° (WSW) 1,616 4.2 -16.2°
Drops below altitude 10° 10:59:19 10° 204° (SSW) 2,482 5.5 -15.3°
Sets 11:02:08 0° 191° (SSW) 3,417 6.4 -14.7°
